カタログに戻る

YAOGAN-36 02B

運用中軍事VLEO
NORAD 54043·PAYLOAD·🇨🇳 China

打ち上げ Oct 14, 2022 から Xichang Satellite Launch Center

Loading…

次のパス (今後24時間)

TLE

最新Source: Space-Track

元期: Sep 14, 2026, 10:16 UTC

1 54043U 22133B   26257.42796162  .00008577  00000-0  25336-3 0  9995
2 54043  34.9956 260.0780 0004889 201.1692 158.8825 15.34174634218553

AllMySatでYAOGAN-36 02Bをリアルタイム追跡

Download on the App Store